User: anonymous   Login
Location: ????????
(54.8751°N, 38.5756°E)
Time: 15:05:29
(UTC+00:00)
Language:

Cosmos 1420 Rocket - Orbit

View from above orbital plane
View from above orbital plane
View from above satellite
View from above satellite

Ground track
Ground track

The orbit data is extracted from the following two-line orbital elements,

1 13649U 82109B   24165.97189821  .00000423  00000-0  14881-3 0  9990
2 13649  74.0006 343.8691 0019135 261.3641 214.4397 14.37899399178253
Epoch (UTC): 13 June 2024 23:19:32
Eccentricity: 0.0019135
inclination: 74.0006°
perigee height: 752 km
apogee height: 779 km
right ascension of ascending node: 343.8691°
argument of perigee: 261.3641°
revolutions per day: 14.37899399
mean anomaly at epoch: 214.4397°
orbit number at epoch: 17825

The dashed part of the orbit path shows where the satellite is in the earth's shadow,  

DLR